EW2611 Weather Reports


time (UTC)temp
C
wind
direction
speed
KPH
gust
KPH
rain 1hr
cm
rain 24hr
cm
rain mn
cm
humidity
%
barometer
mb
20260906140040 26 360 0.0 0.0 0.00 0.00 0.00 80 1011.9
20260906134536 25 360 0.0 0.0 0.00 0.00 0.00 83 1011.9
20260906133037 25 360 0.0 0.0 0.00 0.00 0.00 85 1012.0
20260906131536 23 360 0.0 0.0 0.00 0.00 0.00 89 1012.2
20260906130033 23 360 0.0 0.0 0.00 0.00 0.00 90 1012.3
20260906124529 22 360 0.0 0.0 0.00 0.00 0.00 90 1012.2
20260906123031 22 360 0.0 0.0 0.00 0.00 0.00 91 1012.2
20260906121535 22 360 0.0 0.0 0.00 0.00 0.00 91 1012.1
20260906120027 22 360 0.0 0.0 0.00 0.00 0.00 91 1012.0
20260906114531 22 360 0.0 0.0 0.00 0.00 0.00 91 1011.9
20260906113026 22 360 0.0 0.0 0.00 0.00 0.00 91 1012.0
20260906111529 23 360 0.0 0.0 0.00 0.00 0.00 91 1011.6
20260906110024 23 360 0.0 0.0 0.00 0.00 0.00 90 1011.4
20260906104523 23 360 0.0 0.0 0.00 0.00 0.00 90 1011.3
20260906103023 23 360 0.0 0.0 0.00 0.00 0.00 90 1011.5
20260906101529 22 360 0.0 0.0 0.00 0.00 0.00 90 1011.5
20260906100030 22 360 0.0 0.0 0.00 0.00 0.00 90 1011.4
20260906094521 22 360 0.0 0.0 0.00 0.00 0.00 90 1011.1
20260906093019 22 360 0.0 0.0 0.00 0.00 0.00 90 1010.9
20260906091517 22 360 0.0 0.0 0.00 0.00 0.00 89 1010.8
20260906090015 23 360 0.0 0.0 0.00 0.00 0.00 88 1011.3
20260906084514 23 360 0.0 0.0 0.00 0.00 0.00 88 1011.5
20260906083012 23 360 0.0 0.0 0.00 0.00 0.00 88 1011.9
20260906081513 23 360 0.0 0.0 0.00 0.00 0.00 90 1011.9
20260906080011 24 360 0.0 0.0 0.00 0.00 0.00 90 1011.5
20260906074509 24 360 0.0 0.0 0.00 0.00 0.00 90 1011.3
20260906073008 24 360 0.0 0.0 0.00 0.00 0.00 90 1011.3
20260906071506 24 360 0.0 0.0 0.00 0.00 0.00 90 1011.4
20260906070006 24 360 0.0 0.0 0.00 0.00 0.00 90 1011.4
20260906064505 24 360 0.0 0.0 0.00 0.00 0.00 90 1011.8
20260906063002 24 360 0.0 0.0 0.00 0.00 0.00 90 1011.5
20260906061600 23 360 0.0 0.0 0.00 0.00 0.00 90 1011.3
20260906060134 23 360 0.0 0.0 0.00 0.00 0.00 91 1011.3
20260906054611 23 360 0.0 0.0 0.00 0.00 0.00 91 1011.4
20260906053055 23 360 0.0 0.0 0.00 0.00 0.00 90 1011.4
20260906051558 23 360 0.0 0.0 0.00 0.00 0.00 90 1011.4
20260906050051 23 360 0.0 0.0 0.00 0.00 0.00 90 1011.6
20260906044551 24 360 0.0 0.0 0.00 0.00 0.00 90 1011.6
20260906043051 24 360 0.0 0.0 0.00 0.00 0.00 90 1011.8
20260906041550 25 360 0.0 0.0 0.00 0.00 0.00 89 1011.7
20260906040049 25 360 0.0 0.0 0.00 0.00 0.00 89 1011.7
20260906034600 25 360 0.0 0.0 0.00 0.00 0.00 89 1011.7
20260906033049 25 360 0.0 0.0 0.00 0.00 0.00 87 1011.5
20260906031550 25 360 0.0 0.0 0.00 0.00 0.00 85 1011.5
20260906030048 26 360 0.0 0.0 0.00 0.00 0.00 84 1011.5
20260906024553 26 360 0.0 0.0 0.00 0.00 0.00 83 1011.3
20260906023047 26 360 0.0 0.0 0.00 0.00 0.00 83 1011.1
20260906021551 26 360 0.0 0.0 0.00 0.00 0.00 81 1011.1
20260906020046 26 360 0.0 0.0 0.00 0.00 0.00 82 1011.2
20260906014550 26 360 0.0 0.0 0.00 0.00 0.00 81 1011.0
20260906013047 26 360 0.0 0.0 0.00 0.00 0.00 82 1010.9
20260906011545 27 360 0.0 0.0 0.00 0.00 0.00 81 1010.3
20260906004556 27 360 0.0 0.0 0.00 0.00 0.00 81 1009.7
20260906003044 28 360 0.0 0.0 0.00 0.00 0.00 81 1009.7
20260906001557 28 360 0.0 0.0 0.00 0.00 0.00 80 1009.9
20260906000042 29 360 0.0 0.0 0.00 0.00 0.00 76 1009.9
20260905234540 30 360 0.0 0.0 0.00 0.00 0.00 72 1010.3
20260905233041 31 360 0.0 0.0 0.00 0.00 0.00 68 1010.3
20260905231540 31 360 0.0 0.0 0.00 0.00 0.00 65 1010.0
20260905230040 32 360 0.0 0.0 0.00 0.00 0.00 62 1009.7
20260905224538 33 360 0.0 0.0 0.00 0.00 0.00 60 1009.6
20260905223048 33 360 0.0 0.0 0.00 0.00 0.00 58 1009.7
20260905221536 33 360 0.0 0.0 0.00 0.00 0.00 55 1009.9
20260905220033 33 360 0.0 0.0 0.00 0.00 0.00 55 1009.8
20260905214534 33 360 0.0 0.0 0.00 0.00 0.00 55 1010.0
20260905213033 34 360 0.0 0.0 0.00 0.00 0.00 55 1009.9
20260905211528 34 360 0.0 0.0 0.00 0.00 0.00 56 1010.0
20260905210042 34 360 0.0 0.0 0.00 0.00 0.00 55 1010.1
20260905204527 35 360 0.0 0.0 0.00 0.00 0.00 55 1010.1
20260905203025 35 360 0.0 0.0 0.00 0.00 0.00 55 1010.2
20260905201526 35 360 0.0 0.0 0.00 0.00 0.00 55 1010.5
20260905200030 34 360 0.0 0.0 0.00 0.00 0.00 56 1010.8
20260905194518 33 360 0.0 0.0 0.00 0.00 0.00 57 1011.0
20260905193020 34 360 0.0 0.0 0.00 0.00 0.00 57 1011.1
20260905191515 33 360 0.0 0.0 0.00 0.00 0.00 60 1011.2
20260905190013 34 360 0.0 0.0 0.00 0.00 0.00 56 1011.6
20260905184524 33 360 0.0 0.0 0.00 0.00 0.00 58 1011.7
20260905183011 33 360 0.0 0.0 0.00 0.00 0.00 58 1012.0
20260905181509 33 360 0.0 0.0 0.00 0.00 0.00 57 1012.2
20260905180009 33 360 0.0 0.0 0.00 0.00 0.00 58 1012.5
20260905174505 33 360 0.0 0.0 0.00 0.00 0.00 60 1012.5
20260905173005 33 360 0.0 0.0 0.00 0.00 0.00 61 1012.6
20260905171504 32 360 0.0 0.0 0.00 0.00 0.00 61 1012.7
20260905170002 32 360 0.0 0.0 0.00 0.00 0.00 62 1012.8
20260905164600 32 360 0.0 0.0 0.00 0.00 0.00 64 1013.0
20260905163058 32 360 0.0 0.0 0.00 0.00 0.00 65 1013.2
20260905161556 32 360 0.0 0.0 0.00 0.00 0.00 67 1013.3
20260905160056 32 360 0.0 0.0 0.00 0.00 0.00 66 1013.4
20260905154600 32 360 0.0 0.0 0.00 0.00 0.00 68 1013.5
20260905153050 31 360 0.0 0.0 0.00 0.00 0.00 70 1013.5
20260905151555 31 360 0.0 0.0 0.00 0.00 0.00 74 1013.5
20260905150048 30 360 0.0 0.0 0.00 0.00 0.00 77 1013.6
20260905144546 30 360 0.0 0.0 0.00 0.00 0.00 77 1013.6
20260905143038 30 360 0.0 0.0 0.00 0.00 0.00 84 1013.7
20260905141533 28 360 0.0 0.0 0.00 0.00 0.00 86 1013.7